Change the Weather History Date:

Monday, May 27, 2013

  Actual Average Record
Temperature  
Mean Temperature 73 °F -  
Max Temperature 78 °F 78 °F 82 °F (1999)
Min Temperature 68 °F 64 °F 55 °F (2011)
Cooling Degree Days 8    
Growing Degree Days 23 (Base 50)    
Moisture  
Dew Point 65 °F    
Average Humidity 77    
Maximum Humidity 100    
Minimum Humidity 51    
Precipitation  
Precipitation 0.00 in 0.07 in - ()
Sea Level Pressure  
Sea Level Pressure 30.05 in    
Wind  
Wind Speed 13 mph ()    
Max Wind Speed 26 mph    
Max Gust Speed 32 mph    
Visibility 6.4 miles    
Events Rain    
Averages and records for this station are not official NWS values.
T = Trace of Precipitation, MM = Missing Value Source: Averaged Metar Reports

Daily Weather History Graph

Daily Weather History Graph

Search for Another Location

Airport or City:

Trip Planner

Search our weather history database for the weather conditions in past years. The results will help you decide how hot, cold, wet, or windy it might be!

Date:

Astronomy

May. 27, 2013 Rise Set
Actual Time 6:37 AM AEST 5:50 PM AEST
Civil Twilight 6:14 AM AEST 6:13 PM AEST
Nautical Twilight 5:47 AM AEST 6:40 PM AEST
Astronomical Twilight 5:21 AM AEST 7:06 PM AEST
Moon 8:06 PM AEST (5/27) 8:25 AM AEST (5/27)
Length of Visible Light 11h 59m
Length of Day
11h 13m
Waning Gibbous, 95% of the Moon is Illuminated
May 27
Waning Gibbous
Jun 1
Last Quarter
Jun 9
New
Jun 17
First Quarter
Jun 23
Full

Hourly Weather History & Observations

Time (AEST) Temp. Dew Point Humidity Pressure Visibility Wind Dir Wind Speed Gust Speed Precip Events Conditions
12:00 AM 69 °F 67 °F 91% 30.04 in 6 mi South 11.5 mph - -   Overcast
12:00 AM 69.8 °F 66.2 °F 88% 30.04 in 3.7 mi South 11.5 mph - N/A Rain Light Rain Showers
12:19 AM 69.8 °F 66.2 °F 88% 30.04 in 6.2 mi South 12.7 mph - N/A   Mostly Cloudy
12:30 AM 69.8 °F 68.0 °F 94% 30.04 in 6.2 mi South 15.0 mph - N/A   Mostly Cloudy
1:00 AM 69 °F 67 °F 90% 30.05 in - South 10.4 mph - -  
1:00 AM 69.8 °F 66.2 °F 88% 30.04 in 6.2 mi South 10.4 mph - N/A Rain Light Rain Showers
1:06 AM 69.8 °F 68.0 °F 94% 30.04 in 3.7 mi South 10.4 mph - N/A Rain Light Rain Showers
1:30 AM 69.8 °F 68.0 °F 94% 30.04 in 3.7 mi SSE 11.5 mph - N/A Rain Light Rain Showers
2:00 AM 69.8 °F 68.0 °F 94% 30.04 in 3.7 mi SSE 10.4 mph - N/A Rain Light Rain Showers
2:30 AM 68.0 °F 68.0 °F 100% 30.01 in 3.7 mi SSE 8.1 mph - N/A Rain Light Rain Showers
3:00 AM 69 °F 68 °F 95% 30.02 in - SE 10.4 mph - -   Overcast
3:00 AM 68.0 °F 68.0 °F 100% 30.01 in 5.6 mi SE 10.4 mph - N/A Rain Light Rain Showers
3:30 AM 68.0 °F 68.0 °F 100% 30.01 in 5.0 mi SSE 10.4 mph - N/A Rain Light Rain Showers
4:00 AM 69 °F 67 °F 90% 30.02 in - SSE 10.4 mph - -  
4:00 AM 69.8 °F 66.2 °F 88% 30.01 in 6.2 mi SSE 10.4 mph - N/A   Mostly Cloudy
4:30 AM 69.8 °F 66.2 °F 88% 30.01 in 6.2 mi SSE 11.5 mph - N/A Rain Light Rain Showers
5:00 AM 69.8 °F 66.2 °F 88% 30.01 in 6.2 mi South 12.7 mph - N/A   Mostly Cloudy
5:30 AM 69.8 °F 66.2 °F 88% 30.01 in 6.2 mi South 11.5 mph - N/A   Mostly Cloudy
6:00 AM 69 °F 66 °F 87% 30.03 in 6 mi South 12.7 mph - -   Partly Cloudy
6:00 AM 69.8 °F 66.2 °F 88% 30.04 in 5.6 mi South 12.7 mph - N/A   Scattered Clouds
6:30 AM 69.8 °F 66.2 °F 88% 30.04 in 6.2 mi South 12.7 mph - N/A   Mostly Cloudy
7:00 AM 70 °F 66 °F 82% 30.06 in - South 12.7 mph - -  
7:00 AM 69.8 °F 66.2 °F 88% 30.04 in 5.0 mi South 12.7 mph - N/A   Overcast
7:15 AM 69.8 °F 66.2 °F 88% 30.04 in 3.7 mi ESE 8.1 mph - N/A Rain Light Rain Showers
7:30 AM 69.8 °F 66.2 °F 88% 30.04 in 6.2 mi South 11.5 mph - N/A Rain Light Rain Showers
8:00 AM 71.6 °F 66.2 °F 83% 30.06 in 6.2 mi South 12.7 mph - N/A   Mostly Cloudy
8:30 AM 71.6 °F 66.2 °F 83% 30.06 in 6.2 mi South 12.7 mph - N/A   Mostly Cloudy
9:00 AM 72 °F 67 °F 79% 30.08 in 12 mi South 15.0 mph - -   Partly Cloudy
9:00 AM 71.6 °F 66.2 °F 83% 30.06 in 6.2 mi South 15.0 mph - N/A   Scattered Clouds
9:30 AM 73.4 °F 66.2 °F 78% 30.06 in 6.2 mi South 17.3 mph - N/A   Partly Cloudy
10:00 AM 76 °F 66 °F 64% 30.09 in - South 16.1 mph - -  
10:00 AM 75.2 °F 66.2 °F 73% 30.06 in 6.2 mi South 16.1 mph - N/A   Partly Cloudy
10:30 AM 77.0 °F 66.2 °F 69% 30.06 in 6.2 mi SSE 17.3 mph - N/A   Partly Cloudy
11:00 AM 75.2 °F 64.4 °F 69% 30.06 in 6.2 mi SSE 15.0 mph - N/A   Scattered Clouds
11:30 AM 75.2 °F 64.4 °F 69% 30.06 in 6.2 mi South 16.1 mph - N/A   Mostly Cloudy
11:58 AM 77.0 °F 64.4 °F 65% 30.06 in 6.2 mi SE 24.2 mph - N/A   Mostly Cloudy
12:00 PM 76 °F 64 °F 58% 30.07 in 16 mi SE 26.5 mph - -   Partly Cloudy
12:00 PM 75.2 °F 64.4 °F 69% 30.06 in 6.2 mi SE 26.5 mph - N/A   Mostly Cloudy
12:30 PM 78.8 °F 64.4 °F 61% 30.06 in 6.2 mi SE 24.2 mph - N/A   Scattered Clouds
1:00 PM 78 °F 64 °F 52% 30.06 in - SE 25.3 mph - -  
1:00 PM 78.8 °F 64.4 °F 61% 30.04 in 6.2 mi SE 25.3 mph - N/A   Scattered Clouds
1:30 PM 77.0 °F 62.6 °F 61% 30.04 in 6.2 mi SE 23.0 mph - N/A   Scattered Clouds
2:00 PM 77.0 °F 64.4 °F 65% 30.04 in 6.2 mi SSE 24.2 mph - N/A   Scattered Clouds
2:20 PM 78.8 °F 64.4 °F 61% 30.04 in 6.2 mi SE 20.7 mph 32.2 mph N/A   Scattered Clouds
2:30 PM 77.0 °F 64.4 °F 65% 30.04 in 6.2 mi SSE 15.0 mph - N/A   Scattered Clouds
3:00 PM 78 °F 63 °F 51% 30.03 in 19 mi South 17.3 mph - -   Partly Cloudy
3:00 PM 77.0 °F 62.6 °F 61% 30.01 in 6.2 mi South 17.3 mph - N/A   Scattered Clouds
3:30 PM 75.2 °F 62.6 °F 65% 30.04 in 6.2 mi South 18.4 mph - N/A   Scattered Clouds
4:00 PM 74 °F 63 °F 59% 30.04 in - SSE 19.6 mph - -  
4:00 PM 75.2 °F 62.6 °F 65% 30.04 in 6.2 mi SSE 19.6 mph - N/A   Scattered Clouds
4:12 PM 73.4 °F 62.6 °F 69% 30.04 in 6.2 mi SSE 19.6 mph 31.1 mph N/A   Scattered Clouds
4:32 PM 73.4 °F 62.6 °F 69% 30.04 in 6.2 mi SSE 20.7 mph 32.2 mph N/A   Scattered Clouds
5:00 PM 73.4 °F 62.6 °F 69% 30.04 in 6.2 mi SSE 21.9 mph - N/A   Scattered Clouds
5:30 PM 73.4 °F 62.6 °F 69% 30.04 in 6.2 mi SSE 18.4 mph - N/A   Scattered Clouds
6:00 PM 72 °F 63 °F 65% 30.06 in - South 13.8 mph - -   Overcast
6:00 PM 71.6 °F 62.6 °F 73% 30.04 in 6.2 mi South 13.8 mph - N/A   Scattered Clouds
6:30 PM 71.6 °F 62.6 °F 73% 30.06 in 6.2 mi SSE 19.6 mph - N/A   Scattered Clouds
7:00 PM 72 °F 63 °F 66% 30.08 in - SSE 18.4 mph - -  
7:00 PM 71.6 °F 62.6 °F 73% 30.06 in 6.2 mi SSE 18.4 mph - N/A   Partly Cloudy
7:30 PM 71.6 °F 62.6 °F 73% 30.06 in 6.2 mi South 13.8 mph - N/A   Partly Cloudy
8:00 PM 71.6 °F 62.6 °F 73% 30.06 in 6.2 mi South 13.8 mph - N/A   Partly Cloudy
8:30 PM 71.6 °F 62.6 °F 73% 30.09 in 6.2 mi South 15.0 mph - N/A   Partly Cloudy
9:00 PM 71 °F 63 °F 68% 30.10 in - South 15.0 mph - -  
9:00 PM 71.6 °F 62.6 °F 73% 30.09 in 6.2 mi South 15.0 mph - N/A   Scattered Clouds
9:30 PM 69.8 °F 62.6 °F 78% 30.09 in 6.2 mi South 13.8 mph - N/A   Partly Cloudy
10:00 PM 70 °F 62 °F 69% 30.10 in - South 12.7 mph - -  
10:00 PM 69.8 °F 62.6 °F 78% 30.09 in 6.2 mi South 12.7 mph - N/A   Partly Cloudy
10:30 PM 69.8 °F 62.6 °F 78% 30.09 in 6.2 mi South 13.8 mph - N/A   Partly Cloudy
11:00 PM 69.8 °F 60.8 °F 73% 30.09 in 6.2 mi South 12.7 mph - N/A   Partly Cloudy
11:30 PM 69.8 °F 60.8 °F 73% 30.06 in 6.2 mi South 11.5 mph - N/A   Scattered Clouds